Location: Newark
(48.3453°N, 0.5589°E)
Time: 13:54:43
(UTC+00:00)

Explorer 7 - Visible Passes

Search period start: 06 December 2019 00:00
Search period end: 16 December 2019 00:00
Orbit: 485 x 680 km, 50.3° (Epoch: 05 December)

Date Brightness Start Highest point End Pass type
(mag) Time Alt. Az. Time Alt. Az. Time Alt. Az.
06 Dec 7.5 17:51:09 10° SW 17:55:57 57° SSE 17:57:49 35° E visible
06 Dec 9.0 19:31:41 10° W 19:34:08 29° W 19:34:08 29° W visible
07 Dec 7.2 17:55:57 10° WSW 18:00:51 74° SSE 18:02:37 39° E visible
07 Dec 9.2 19:36:43 10° W 19:38:57 26° W 19:38:57 26° W visible
08 Dec 7.2 18:00:52 10° WSW 18:05:48 89° S 18:07:24 43° ENE visible
08 Dec 9.4 19:41:46 10° W 19:43:43 24° WNW 19:43:43 24° WNW visible
09 Dec 7.2 18:05:51 10° W 18:10:47 79° NNW 18:12:10 47° ENE visible
09 Dec 9.5 19:46:47 10° WNW 19:48:29 21° WNW 19:48:29 21° WNW visible
10 Dec 7.6 16:30:17 10° SW 16:35:06 62° SSE 16:39:58 10° ENE visible
10 Dec 7.2 18:10:53 10° W 18:15:48 72° N 18:16:56 52° ENE visible
10 Dec 9.7 19:51:46 10° WNW 19:53:15 20° WNW 19:53:15 20° WNW visible
11 Dec 7.4 16:35:07 10° WSW 16:40:01 79° SSE 16:44:56 10° ENE visible
11 Dec 7.2 18:15:55 10° W 18:20:50 69° N 18:21:42 56° NE visible
11 Dec 9.8 19:56:45 10° WNW 19:58:01 18° WNW 19:58:01 18° WNW visible
12 Dec 7.3 16:40:04 10° WSW 16:44:58 87° NNW 16:49:55 10° ENE visible
12 Dec 7.2 18:20:57 10° W 18:25:52 71° N 18:26:29 62° NE visible
12 Dec 9.9 20:01:44 10° WNW 20:02:48 16° WNW 20:02:48 16° WNW visible
13 Dec 7.3 16:45:04 10° W 16:49:58 76° N 16:54:55 10° ENE visible
13 Dec 7.1 18:25:57 10° WNW 18:30:54 76° N 18:31:17 71° NE visible
13 Dec 10.0 20:06:44 10° WNW 20:07:37 15° WNW 20:07:37 15° WNW visible
14 Dec 7.3 16:50:06 10° W 16:54:59 71° N 16:59:49 10° E visible
14 Dec 7.0 18:30:56 10° WNW 18:35:54 86° NNE 18:36:09 80° E visible
14 Dec 10.1 20:11:47 10° WNW 20:12:29 14° W 20:12:29 14° W visible
15 Dec 7.3 16:55:08 10° W 17:00:01 69° N 17:04:45 11° E visible
15 Dec 7.1 18:35:54 10° WNW 18:40:51 80° SSW 18:41:05 77° SSE visible
15 Dec 10.2 20:16:57 10° W 20:17:25 12° W 20:17:25 12° W visible
